Location: Gwatt
(46.7204°N, 7.6223°E)
Time: 06:02:33
(UTC+00:00)

CENTAUR R/B - Pass Details

Date: 18 September 2020
Orbit: 755 x 1433 km, 63.4° (Epoch: 02 October)

Event Time Altitude Azimuth Distance (km) Brightness Sun altitude
Rises 19:23:45 0° 320° (NW) 4,085 6.9 -19.0°
Reaches altitude 10° 19:26:25 10° 323° (NW) 3,206 6.1 -19.4°
Maximum altitude 19:34:19 65° 45° (NE) 1,478 3.3 -20.6°
Enters shadow 19:38:32 33° 115° (ESE) 2,171 3.7 -21.3°
